When you browse on this site, cookies collect data to enhance your experience and personalize the content and advertising you see.
Visit our Privacy Policy to learn more. By continuing to use the site, you agree to this use of cookies and data.
  • In United Kingdom
  • List of Countries
  • For 7 days
  • Water Temperature
  • Satellite Maps
  • Weather Map
  • Weather Widgets
  • user-avatar
    Login

    Hourly Weather Ventspils

    Today, 26 April, Friday

    Time Temperature Precipitation Wind Pressure Humidity
    00:00 +12°C° 0 mm 3 mps 761 mmHg 93%
    01:00 +12°C° 0 mm 3 mps 761 mmHg 94%
    02:00 +12°C° 0 mm 3 mps 761 mmHg 94%
    03:00 +13°C° 0 mm 2 mps 761 mmHg 95%
    04:00 +13°C° 0 mm 2 mps 761 mmHg 95%
    05:00 +14°C° 0 mm 2 mps 761 mmHg 91%
    06:00 +14°C° 0 mm 3 mps 761 mmHg 87%
    07:00 +16°C° 0 mm 3 mps 761 mmHg 83%
    08:00 +18°C° 0 mm 3 mps 760 mmHg 76%
    09:00 +20°C° 0 mm 2 mps 760 mmHg 68%
    10:00 +21°C° 0 mm 2 mps 760 mmHg 61%
    11:00 +23°C° 0.1 mm 2 mps 760 mmHg 58%
    12:00 +24°C° 0.1 mm 2 mps 760 mmHg 55%
    13:00 +25°C° 0.1 mm 1 mps 760 mmHg 52%
    14:00 +24°C° 0.7 mm 2 mps 759 mmHg 54%
    15:00 +24°C° 0.7 mm 2 mps 759 mmHg 57%
    16:00 +22°C° 0.7 mm 3 mps 759 mmHg 59%
    17:00 +21°C° 0.3 mm 3 mps 758 mmHg 66%
    18:00 +19°C° 0.3 mm 3 mps 758 mmHg 73%
    19:00 +17°C° 0.3 mm 3 mps 758 mmHg 80%
    20:00 +16°C° 0.4 mm 3 mps 758 mmHg 82%
    21:00 +14°C° 0.4 mm 3 mps 758 mmHg 84%
    22:00 +13°C° 0.4 mm 3 mps 757 mmHg 85%
    23:00 +13°C° 0 mm 3 mps 757 mmHg 86%

    Tomorrow, 27 April, Saturday

    Time Temperature Precipitation Wind Pressure Humidity
    00:00 +13°C° 0 mm 3 mps 757 mmHg 86%
    01:00 +13°C° 0 mm 3 mps 757 mmHg 87%
    02:00 +12°C° 0 mm 3 mps 757 mmHg 88%
    03:00 +13°C° 0 mm 2 mps 756 mmHg 89%
    04:00 +13°C° 0 mm 2 mps 756 mmHg 90%
    05:00 +13°C° 0 mm 3 mps 756 mmHg 86%
    06:00 +16°C° 0 mm 3 mps 756 mmHg 82%
    07:00 +17°C° 0 mm 3 mps 756 mmHg 78%
    08:00 +18°C° 0 mm 3 mps 756 mmHg 71%
    09:00 +20°C° 0 mm 3 mps 756 mmHg 64%
    10:00 +21°C° 0 mm 4 mps 756 mmHg 57%
    11:00 +22°C° 0 mm 4 mps 756 mmHg 55%
    12:00 +22°C° 0 mm 4 mps 756 mmHg 53%
    13:00 +23°C° 0 mm 5 mps 756 mmHg 52%
    14:00 +22°C° 0 mm 5 mps 755 mmHg 53%
    15:00 +22°C° 0 mm 5 mps 755 mmHg 54%
    16:00 +21°C° 0 mm 5 mps 755 mmHg 55%
    17:00 +20°C° 0 mm 5 mps 755 mmHg 60%
    18:00 +17°C° 0 mm 5 mps 755 mmHg 65%
    19:00 +17°C° 0 mm 4 mps 755 mmHg 70%
    20:00 +15°C° 0 mm 5 mps 755 mmHg 72%
    21:00 +15°C° 0 mm 6 mps 755 mmHg 74%
    22:00 +14°C° 0 mm 6 mps 756 mmHg 75%
    23:00 +14°C° 0 mm 6 mps 756 mmHg 76%

    Day after tomorrow, 28 April, Sunday

    Time Temperature Precipitation Wind Pressure Humidity
    00:00 +12°C° 0 mm 7 mps 756 mmHg 76%
    01:00 +11°C° 0 mm 7 mps 756 mmHg 76%
    02:00 +11°C° 0 mm 7 mps 757 mmHg 78%
    03:00 +11°C° 0 mm 8 mps 757 mmHg 80%
    04:00 +10°C° 0 mm 8 mps 757 mmHg 82%
    05:00 +11°C° 0 mm 8 mps 758 mmHg 79%
    06:00 +11°C° 0 mm 8 mps 758 mmHg 77%
    07:00 +11°C° 0 mm 8 mps 759 mmHg 74%
    08:00 +12°C° 0 mm 8 mps 759 mmHg 70%
    09:00 +12°C° 0 mm 8 mps 760 mmHg 65%
    10:00 +13°C° 0 mm 8 mps 761 mmHg 60%
    11:00 +13°C° 0 mm 8 mps 761 mmHg 57%
    12:00 +15°C° 0 mm 8 mps 762 mmHg 54%
    13:00 +15°C° 0 mm 8 mps 762 mmHg 50%
    14:00 +15°C° 0 mm 7 mps 762 mmHg 49%
    15:00 +14°C° 0 mm 7 mps 762 mmHg 47%
    16:00 +14°C° 0 mm 7 mps 763 mmHg 45%
    17:00 +12°C° 0 mm 7 mps 763 mmHg 45%
    18:00 +10°C° 0 mm 7 mps 764 mmHg 44%
    19:00 +9°C° 0 mm 7 mps 764 mmHg 44%
    20:00 +9°C° 0 mm 6 mps 765 mmHg 45%
    21:00 +8°C° 0 mm 6 mps 765 mmHg 46%
    22:00 +7°C° 0 mm 6 mps 766 mmHg 48%
    23:00 +7°C° 0 mm 6 mps 766 mmHg 50%

    29 April, Monday

    Time Temperature Precipitation Wind Pressure Humidity
    00:00 +5°C° 0 mm 6 mps 766 mmHg 52%
    01:00 +5°C° 0 mm 5 mps 767 mmHg 54%
    02:00 +5°C° 0 mm 5 mps 767 mmHg 56%
    03:00 +3°C° 0 mm 5 mps 767 mmHg 58%
    04:00 +2°C° 0 mm 5 mps 767 mmHg 60%
    05:00 +3°C° 0 mm 5 mps 767 mmHg 58%
    06:00 +5°C° 0 mm 5 mps 767 mmHg 56%
    07:00 +6°C° 0 mm 5 mps 767 mmHg 54%
    08:00 +8°C° 0 mm 5 mps 768 mmHg 49%
    09:00 +10°C° 0 mm 4 mps 768 mmHg 45%
    10:00 +12°C° 0 mm 4 mps 768 mmHg 41%
    11:00 +12°C° 0 mm 4 mps 767 mmHg 39%
    12:00 +13°C° 0 mm 5 mps 767 mmHg 38%
    13:00 +13°C° 0 mm 5 mps 767 mmHg 37%
    14:00 +13°C° 0 mm 5 mps 767 mmHg 37%
    15:00 +12°C° 0 mm 5 mps 766 mmHg 38%
    16:00 +12°C° 0 mm 5 mps 766 mmHg 39%
    17:00 +11°C° 0 mm 4 mps 766 mmHg 44%
    18:00 +8°C° 0 mm 4 mps 766 mmHg 48%
    19:00 +7°C° 0 mm 3 mps 766 mmHg 53%
    20:00 +5°C° 0 mm 3 mps 766 mmHg 54%
    21:00 +5°C° 0 mm 3 mps 765 mmHg 55%
    22:00 +4°C° 0 mm 3 mps 765 mmHg 57%
    23:00 +3°C° 0 mm 3 mps 765 mmHg 61%

    30 April, Tuesday

    Time Temperature Precipitation Wind Pressure Humidity
    00:00 +3°C° 0 mm 3 mps 765 mmHg 65%
    01:00 +3°C° 0 mm 3 mps 765 mmHg 70%
    02:00 +3°C° 0 mm 3 mps 765 mmHg 70%
    03:00 +2°C° 0 mm 3 mps 765 mmHg 71%
    04:00 +2°C° 0 mm 3 mps 764 mmHg 72%
    05:00 +4°C° 0 mm 3 mps 764 mmHg 67%
    06:00 +7°C° 0 mm 3 mps 764 mmHg 61%
    07:00 +8°C° 0 mm 3 mps 764 mmHg 56%
    08:00 +9°C° 0 mm 3 mps 764 mmHg 51%
    09:00 +11°C° 0 mm 4 mps 764 mmHg 45%
    10:00 +12°C° 0 mm 4 mps 764 mmHg 40%
    11:00 +12°C° 0 mm 4 mps 764 mmHg 38%
    12:00 +13°C° 0 mm 5 mps 764 mmHg 37%
    13:00 +13°C° 0 mm 5 mps 764 mmHg 35%
    14:00 +12°C° 0 mm 5 mps 764 mmHg 37%
    15:00 +12°C° 0 mm 5 mps 763 mmHg 39%
    16:00 +10°C° 0 mm 5 mps 763 mmHg 40%
    17:00 +9°C° 0 mm 5 mps 763 mmHg 47%
    18:00 +7°C° 0 mm 4 mps 763 mmHg 53%
    19:00 +5°C° 0 mm 4 mps 763 mmHg 60%
    20:00 +5°C° 0 mm 3 mps 763 mmHg 64%
    21:00 +4°C° 0 mm 3 mps 763 mmHg 68%
    22:00 +3°C° 0 mm 3 mps 763 mmHg 71%
    23:00 +4°C° 0 mm 2 mps 762 mmHg 74%

    1 May, Wednesday

    Time Temperature Precipitation Wind Pressure Humidity
    00:00 +3°C° 0 mm 2 mps 762 mmHg 76%
    01:00 +4°C° 0 mm 1 mps 762 mmHg 78%
    02:00 +4°C° 0 mm 1 mps 762 mmHg 80%
    03:00 +4°C° 0 mm 1 mps 761 mmHg 81%
    04:00 +2°C° 0 mm 0 mps 761 mmHg 83%
    05:00 +5°C° 0 mm 1 mps 761 mmHg 76%
    06:00 +7°C° 0 mm 1 mps 761 mmHg 69%
    07:00 +8°C° 0 mm 2 mps 760 mmHg 63%
    08:00 +9°C° 0 mm 2 mps 760 mmHg 60%
    09:00 +10°C° 0 mm 2 mps 760 mmHg 57%
    10:00 +12°C° 0 mm 2 mps 760 mmHg 54%
    11:00 +11°C° 0 mm 3 mps 759 mmHg 52%
    12:00 +11°C° 0 mm 4 mps 759 mmHg 51%
    13:00 +10°C° 0 mm 5 mps 758 mmHg 49%
    14:00 +10°C° 0 mm 5 mps 758 mmHg 49%
    15:00 +9°C° 0 mm 5 mps 757 mmHg 49%
    16:00 +9°C° 0 mm 6 mps 756 mmHg 49%
    17:00 +8°C° 0 mm 6 mps 756 mmHg 52%
    18:00 +5°C° 0 mm 6 mps 755 mmHg 56%
    19:00 +4°C° 0 mm 6 mps 755 mmHg 59%
    20:00 +4°C° 0 mm 6 mps 754 mmHg 60%
    21:00 +4°C° 0 mm 7 mps 754 mmHg 61%
    22:00 +4°C° 0 mm 7 mps 753 mmHg 61%
    23:00 +5°C° 0 mm 7 mps 752 mmHg 67%
    Show more